Location: Bou Ouachlou
(32.7770°N, 5.6009°W)
Time: 18:55:11
(UTC+00:00)

Cosmos 1818 - Pass Details

Date: 07 June 2020
Orbit: 777 x 796 km, 65.0° (Epoch: 02 July)

Event Time Altitude Azimuth Distance (km) Brightness Sun altitude
Exits shadow 03:37:21 23° 190° (S) 1,635 4.7 -17.4°
Maximum altitude 03:40:44 64° 115° (ESE) 868 3.8 -16.9°
Drops below altitude 10° 03:46:06 10° 34° (NE) 2,360 7.3 -16.0°
Sets 03:48:33 0° 32° (NNE) 3,295 8.3 -15.6°
